owner,sensor,date,latitude,longitude,vertical_datum,wind_speed,wind_to_direction,wind_speed_of_gust,qcFlag 
NDBC,ioos:station:NOAA.NDBC:SMKF1:1,2015-07-01T01:00:00Z,24.6280,-81.1120,48.5,5.7,120.0,6.2,'1111122,1111122,1111122' 
NDBC,ioos:station:NOAA.NDBC:SMKF1:1,2015-07-01T02:00:00Z,24.6280,-81.1120,48.5,6.2,130.0,6.7,'1111122,1111122,1111122' 
NDBC,ioos:station:NOAA.NDBC:SMKF1:1,2015-07-01T03:00:00Z,24.6280,-81.1120,48.5,5.1,130.0,5.7,'1111122,1111122,1111122' 
NDBC,ioos:station:NOAA.NDBC:SMKF1:1,2015-07-01T04:00:00Z,24.6280,-81.1120,48.5,5.1,120.0,5.7,'1111122,1111122,1111122' 
NDBC,ioos:station:NOAA.NDBC:SMKF1:1,2015-07-01T05:00:00Z,24.6280,-81.1120,48.5,4.6,110.0,5.1,'1111122,1111122,1111122' 
NDBC,ioos:station:NOAA.NDBC:SMKF1:1,2015-07-01T06:00:00Z,24.6280,-81.1120,48.5,4.6,80.0,5.1,'1111122,1111122,1111122' 
NDBC,ioos:station:NOAA.NDBC:SMKF1:1,2015-07-01T07:00:00Z,24.6280,-81.1120,48.5,5.7,90.0,6.7,'1111122,1111122,1111122' 
NDBC,ioos:station:NOAA.NDBC:SMKF1:1,2015-07-01T08:00:00Z,24.6280,-81.1120,48.5,5.7,90.0,6.2,'1111122,1111122,1111122' 
NDBC,ioos:station:NOAA.NDBC:SMKF1:1,2015-07-01T09:00:00Z,24.6280,-81.1120,48.5,5.7,80.0,6.2,'1111122,1111122,1111122' 
NDBC,ioos:station:NOAA.NDBC:SMKF1:1,2015-07-01T10:00:00Z,24.6280,-81.1120,48.5,9.8,90.0,10.3,'1111122,1111122,1111122' 
NDBC,ioos:station:NOAA.NDBC:SMKF1:1,2015-07-01T11:00:00Z,24.6280,-81.1120,48.5,8.8,120.0,9.8,'1111122,1111122,1111122' 
NDBC,ioos:station:NOAA.NDBC:SMKF1:1,2015-07-01T12:00:00Z,24.6280,-81.1120,48.5,7.7,120.0,8.2,'1111122,1111122,1111122' 
NDBC,ioos:station:NOAA.NDBC:SMKF1:1,2015-07-01T13:00:00Z,24.6280,-81.1120,48.5,6.7,130.0,7.7,'1111122,1111122,1111122' 
NDBC,ioos:station:NOAA.NDBC:SMKF1:1,2015-07-01T14:00:00Z,24.6280,-81.1120,48.5,7.2,110.0,7.7,'1111122,1111122,1111122' 
NDBC,ioos:station:NOAA.NDBC:SMKF1:1,2015-07-01T15:00:00Z,24.6280,-81.1120,48.5,7.2,110.0,7.7,'1111122,1111122,1111122' 
NDBC,ioos:station:NOAA.NDBC:SMKF1:1,2015-07-01T16:00:00Z,24.6280,-81.1120,48.5,6.7,100.0,6.7,'1111122,1111122,1111122' 
NDBC,ioos:station:NOAA.NDBC:SMKF1:1,2015-07-01T17:00:00Z,24.6280,-81.1120,48.5,7.2,100.0,7.2,'1111122,1111122,1111122' 
NDBC,ioos:station:NOAA.NDBC:SMKF1:1,2015-07-01T18:00:00Z,24.6280,-81.1120,48.5,6.2,110.0,6.2,'1111122,1111122,1111122' 
NDBC,ioos:station:NOAA.NDBC:SMKF1:1,2015-07-01T19:00:00Z,24.6280,-81.1120,48.5,5.7,120.0,6.2,'1111122,1111122,1111122' 
NDBC,ioos:station:NOAA.NDBC:SMKF1:1,2015-07-01T20:00:00Z,24.6280,-81.1120,48.5,5.7,120.0,6.2,'1111122,1111122,1111122' 
NDBC,ioos:station:NOAA.NDBC:SMKF1:1,2015-07-01T21:00:00Z,24.6280,-81.1120,48.5,4.6,100.0,5.1,'1111122,1111122,1111122' 
NDBC,ioos:station:NOAA.NDBC:SMKF1:1,2015-07-01T22:00:00Z,24.6280,-81.1120,48.5,6.2,90.0,6.7,'1111122,1111122,1111122' 
NDBC,ioos:station:NOAA.NDBC:SMKF1:1,2015-07-01T23:00:00Z,24.6280,-81.1120,48.5,6.2,90.0,6.7,'1111122,1111122,1111122' 
NDBC,ioos:station:NOAA.NDBC:SMKF1:1,2015-07-02T00:00:00Z,24.6280,-81.1120,48.5,6.2,80.0,6.7,'1111122,1111122,1111122' 
NDBC,ioos:station:NOAA.NDBC:SMKF1:1,2015-07-02T01:00:00Z,24.6280,-81.1120,48.5,5.1,90.0,5.7,'1111122,1111122,1111122' 
NDBC,ioos:station:NOAA.NDBC:SMKF1:1,2015-07-02T02:00:00Z,24.6280,-81.1120,48.5,8.2,100.0,8.8,'1111122,1111122,1111122' 
NDBC,ioos:station:NOAA.NDBC:SMKF1:1,2015-07-02T03:00:00Z,24.6280,-81.1120,48.5,7.2,100.0,7.7,'1111122,1111122,1111122' 
NDBC,ioos:station:NOAA.NDBC:SMKF1:1,2015-07-02T04:00:00Z,24.6280,-81.1120,48.5,8.2,100.0,8.8,'1111122,1111122,1111122' 
NDBC,ioos:station:NOAA.NDBC:SMKF1:1,2015-07-02T05:00:00Z,24.6280,-81.1120,48.5,5.7,100.0,6.2,'1111122,1111122,1111122' 
NDBC,ioos:station:NOAA.NDBC:SMKF1:1,2015-07-02T06:00:00Z,24.6280,-81.1120,48.5,7.2,90.0,7.7,'1111122,1111122,1111122' 
NDBC,ioos:station:NOAA.NDBC:SMKF1:1,2015-07-02T07:00:00Z,24.6280,-81.1120,48.5,7.7,90.0,8.2,'1111122,1111122,1111122' 
NDBC,ioos:station:NOAA.NDBC:SMKF1:1,2015-07-02T08:00:00Z,24.6280,-81.1120,48.5,5.7,110.0,6.2,'1111122,1111122,1111122' 
NDBC,ioos:station:NOAA.NDBC:SMKF1:1,2015-07-02T09:00:00Z,24.6280,-81.1120,48.5,8.8,120.0,9.8,'1111122,1111122,1111122' 
NDBC,ioos:station:NOAA.NDBC:SMKF1:1,2015-07-02T10:00:00Z,24.6280,-81.1120,48.5,8.2,120.0,8.8,'1111122,1111122,1111122' 
NDBC,ioos:station:NOAA.NDBC:SMKF1:1,2015-07-02T11:00:00Z,24.6280,-81.1120,48.5,7.2,120.0,8.2,'1111122,1111122,1111122' 
NDBC,ioos:station:NOAA.NDBC:SMKF1:1,2015-07-02T12:00:00Z,24.6280,-81.1120,48.5,8.2,120.0,8.8,'1111122,1111122,1111122' 
NDBC,ioos:station:NOAA.NDBC:SMKF1:1,2015-07-02T14:00:00Z,24.6280,-81.1120,48.5,6.7,120.0,7.7,'1111122,1111122,1111122' 
NDBC,ioos:station:NOAA.NDBC:SMKF1:1,2015-07-02T15:00:00Z,24.6280,-81.1120,48.5,5.7,120.0,6.2,'1111122,1111122,1111122' 
NDBC,ioos:station:NOAA.NDBC:SMKF1:1,2015-07-02T17:00:00Z,24.6280,-81.1120,48.5,3.6,110.0,4.1,'1111122,1111122,1111122' 
NDBC,ioos:station:NOAA.NDBC:SMKF1:1,2015-07-02T18:00:00Z,24.6280,-81.1120,48.5,4.1,100.0,4.6,'1111122,1111122,1111122' 
NDBC,ioos:station:NOAA.NDBC:SMKF1:1,2015-07-02T19:00:00Z,24.6280,-81.1120,48.5,3.6,100.0,4.1,'1111122,1111122,1111122' 
NDBC,ioos:station:NOAA.NDBC:SMKF1:1,2015-07-02T20:00:00Z,24.6280,-81.1120,48.5,6.2,100.0,6.2,'1111122,1111122,1111122' 
NDBC,ioos:station:NOAA.NDBC:SMKF1:1,2015-07-02T21:00:00Z,24.6280,-81.1120,48.5,7.2,110.0,7.7,'1111122,1111122,1111122' 
NDBC,ioos:station:NOAA.NDBC:SMKF1:1,2015-07-03T13:00:00Z,24.6280,-81.1120,48.5,6.7,110.0,7.2,'1111122,1111122,1111122' 
NDBC,ioos:station:NOAA.NDBC:SMKF1:1,2015-07-03T14:00:00Z,24.6280,-81.1120,48.5,7.2,120.0,7.7,'1111122,1111122,1111122' 
NDBC,ioos:station:NOAA.NDBC:SMKF1:1,2015-07-03T15:00:00Z,24.6280,-81.1120,48.5,6.2,120.0,6.2,'1111122,1111122,1111122' 
NDBC,ioos:station:NOAA.NDBC:SMKF1:1,2015-07-03T16:00:00Z,24.6280,-81.1120,48.5,6.2,100.0,6.2,'1111122,1111122,1111122' 
NDBC,ioos:station:NOAA.NDBC:SMKF1:1,2015-07-03T17:00:00Z,24.6280,-81.1120,48.5,4.6,110.0,5.1,'1111122,1111122,1111122' 
NDBC,ioos:station:NOAA.NDBC:SMKF1:1,2015-07-03T18:00:00Z,24.6280,-81.1120,48.5,5.7,100.0,6.2,'1111122,1111122,1111122' 
NDBC,ioos:station:NOAA.NDBC:SMKF1:1,2015-07-03T19:00:00Z,24.6280,-81.1120,48.5,6.2,90.0,6.7,'1111122,1111122,1111122' 
NDBC,ioos:station:NOAA.NDBC:SMKF1:1,2015-07-03T20:00:00Z,24.6280,-81.1120,48.5,7.7,110.0,8.2,'1111122,1111122,1111122' 
NDBC,ioos:station:NOAA.NDBC:SMKF1:1,2015-07-03T21:00:00Z,24.6280,-81.1120,48.5,7.2,90.0,7.7,'1111122,1111122,1111122' 
NDBC,ioos:station:NOAA.NDBC:SMKF1:1,2015-07-03T22:00:00Z,24.6280,-81.1120,48.5,7.7,100.0,8.8,'1111122,1111122,1111122' 
NDBC,ioos:station:NOAA.NDBC:SMKF1:1,2015-07-03T23:00:00Z,24.6280,-81.1120,48.5,7.7,100.0,8.8,'1111122,1111122,1111122' 
NDBC,ioos:station:NOAA.NDBC:SMKF1:1,2015-07-04T00:00:00Z,24.6280,-81.1120,48.5,6.7,90.0,7.2,'1111122,1111122,1111122' 
NDBC,ioos:station:NOAA.NDBC:SMKF1:1,2015-07-04T01:00:00Z,24.6280,-81.1120,48.5,8.2,100.0,8.2,'1111122,1111122,1111122' 
NDBC,ioos:station:NOAA.NDBC:SMKF1:1,2015-07-04T02:00:00Z,24.6280,-81.1120,48.5,8.2,80.0,8.8,'1111122,1111122,1111122' 
NDBC,ioos:station:NOAA.NDBC:SMKF1:1,2015-07-04T03:00:00Z,24.6280,-81.1120,48.5,6.2,120.0,6.7,'1111122,1111122,1111122' 
NDBC,ioos:station:NOAA.NDBC:SMKF1:1,2015-07-04T04:00:00Z,24.6280,-81.1120,48.5,4.6,90.0,5.1,'1111122,1111122,1111122' 
NDBC,ioos:station:NOAA.NDBC:SMKF1:1,2015-07-04T05:00:00Z,24.6280,-81.1120,48.5,4.6,80.0,5.1,'1111122,1111122,1111122' 
NDBC,ioos:station:NOAA.NDBC:SMKF1:1,2015-07-04T06:00:00Z,24.6280,-81.1120,48.5,5.7,70.0,6.2,'1111122,1111122,1111122' 
NDBC,ioos:station:NOAA.NDBC:SMKF1:1,2015-07-04T07:00:00Z,24.6280,-81.1120,48.5,5.1,70.0,5.7,'1111122,1111122,1111122' 
NDBC,ioos:station:NOAA.NDBC:SMKF1:1,2015-07-04T08:00:00Z,24.6280,-81.1120,48.5,5.7,80.0,5.7,'1111122,1111122,1111122' 
NDBC,ioos:station:NOAA.NDBC:SMKF1:1,2015-07-04T09:00:00Z,24.6280,-81.1120,48.5,4.6,90.0,5.1,'1111122,1111122,1111122' 
NDBC,ioos:station:NOAA.NDBC:SMKF1:1,2015-07-04T10:00:00Z,24.6280,-81.1120,48.5,5.7,110.0,6.2,'1111122,1111122,1111122' 
NDBC,ioos:station:NOAA.NDBC:SMKF1:1,2015-07-04T11:00:00Z,24.6280,-81.1120,48.5,5.7,120.0,6.7,'1111122,1111122,1111122' 
NDBC,ioos:station:NOAA.NDBC:SMKF1:1,2015-07-04T12:00:00Z,24.6280,-81.1120,48.5,6.7,120.0,7.2,'1111122,1111122,1111122' 
NDBC,ioos:station:NOAA.NDBC:SMKF1:1,2015-07-04T13:00:00Z,24.6280,-81.1120,48.5,6.2,120.0,6.7,'1111122,1111122,1111122' 
NDBC,ioos:station:NOAA.NDBC:SMKF1:1,2015-07-04T14:00:00Z,24.6280,-81.1120,48.5,5.7,110.0,6.2,'1111122,1111122,1111122' 
NDBC,ioos:station:NOAA.NDBC:SMKF1:1,2015-07-04T15:00:00Z,24.6280,-81.1120,48.5,6.2,120.0,7.2,'1111122,1111122,1111122' 
NDBC,ioos:station:NOAA.NDBC:SMKF1:1,2015-07-04T16:00:00Z,24.6280,-81.1120,48.5,5.7,100.0,5.7,'1111122,1111122,1111122' 
NDBC,ioos:station:NOAA.NDBC:SMKF1:1,2015-07-04T17:00:00Z,24.6280,-81.1120,48.5,6.2,90.0,6.7,'1111122,1111122,1111122' 
NDBC,ioos:station:NOAA.NDBC:SMKF1:1,2015-07-04T18:00:00Z,24.6280,-81.1120,48.5,6.7,90.0,7.2,'1111122,1111122,1111122' 
NDBC,ioos:station:NOAA.NDBC:SMKF1:1,2015-07-04T19:00:00Z,24.6280,-81.1120,48.5,7.7,90.0,8.2,'1111122,1111122,1111122' 
NDBC,ioos:station:NOAA.NDBC:SMKF1:1,2015-07-04T20:00:00Z,24.6280,-81.1120,48.5,7.7,100.0,8.2,'1111122,1111122,1111122' 
NDBC,ioos:station:NOAA.NDBC:SMKF1:1,2015-07-04T21:00:00Z,24.6280,-81.1120,48.5,7.2,120.0,8.2,'1111122,1111122,1111122' 
NDBC,ioos:station:NOAA.NDBC:SMKF1:1,2015-07-04T22:00:00Z,24.6280,-81.1120,48.5,8.2,110.0,8.2,'1111122,1111122,1111122' 
NDBC,ioos:station:NOAA.NDBC:SMKF1:1,2015-07-04T23:00:00Z,24.6280,-81.1120,48.5,7.2,100.0,7.7,'1111122,1111122,1111122' 
NDBC,ioos:station:NOAA.NDBC:SMKF1:1,2015-07-05T00:00:00Z,24.6280,-81.1120,48.5,7.2,120.0,7.2,'1111122,1111122,1111122' 
NDBC,ioos:station:NOAA.NDBC:SMKF1:1,2015-07-05T01:00:00Z,24.6280,-81.1120,48.5,6.7,110.0,7.2,'1111122,1111122,1111122' 
NDBC,ioos:station:NOAA.NDBC:SMKF1:1,2015-07-05T02:00:00Z,24.6280,-81.1120,48.5,6.2,100.0,6.7,'1111122,1111122,1111122' 
NDBC,ioos:station:NOAA.NDBC:SMKF1:1,2015-07-05T03:00:00Z,24.6280,-81.1120,48.5,6.7,100.0,6.7,'1111122,1111122,1111122' 
NDBC,ioos:station:NOAA.NDBC:SMKF1:1,2015-07-05T04:00:00Z,24.6280,-81.1120,48.5,6.7,100.0,7.2,'1111122,1111122,1111122' 
NDBC,ioos:station:NOAA.NDBC:SMKF1:1,2015-07-05T05:00:00Z,24.6280,-81.1120,48.5,7.2,90.0,7.7,'1111122,1111122,1111122' 
NDBC,ioos:station:NOAA.NDBC:SMKF1:1,2015-07-05T06:00:00Z,24.6280,-81.1120,48.5,6.2,90.0,6.7,'1111122,1111122,1111122' 
NDBC,ioos:station:NOAA.NDBC:SMKF1:1,2015-07-05T07:00:00Z,24.6280,-81.1120,48.5,6.2,100.0,6.7,'1111122,1111122,1111122' 
NDBC,ioos:station:NOAA.NDBC:SMKF1:1,2015-07-05T08:00:00Z,24.6280,-81.1120,48.5,5.1,100.0,6.2,'1111122,1111122,1111122' 
NDBC,ioos:station:NOAA.NDBC:SMKF1:1,2015-07-05T09:00:00Z,24.6280,-81.1120,48.5,6.2,100.0,7.2,'1111122,1111122,1111122' 
NDBC,ioos:station:NOAA.NDBC:SMKF1:1,2015-07-05T10:00:00Z,24.6280,-81.1120,48.5,7.2,100.0,7.7,'1111122,1111122,1111122' 
NDBC,ioos:station:NOAA.NDBC:SMKF1:1,2015-07-05T11:00:00Z,24.6280,-81.1120,48.5,8.8,130.0,9.3,'1111122,1111122,1111122' 
NDBC,ioos:station:NOAA.NDBC:SMKF1:1,2015-07-05T12:00:00Z,24.6280,-81.1120,48.5,7.2,120.0,7.7,'1111122,1111122,1111122' 
NDBC,ioos:station:NOAA.NDBC:SMKF1:1,2015-07-05T13:00:00Z,24.6280,-81.1120,48.5,6.2,110.0,6.7,'1111122,1111122,1111122' 
NDBC,ioos:station:NOAA.NDBC:SMKF1:1,2015-07-05T14:00:00Z,24.6280,-81.1120,48.5,6.2,110.0,6.7,'1111122,1111122,1111122' 
NDBC,ioos:station:NOAA.NDBC:SMKF1:1,2015-07-05T15:00:00Z,24.6280,-81.1120,48.5,6.2,110.0,6.7,'1111122,1111122,1111122' 
NDBC,ioos:station:NOAA.NDBC:SMKF1:1,2015-07-05T16:00:00Z,24.6280,-81.1120,48.5,6.2,100.0,6.7,'1111122,1111122,1111122' 
NDBC,ioos:station:NOAA.NDBC:SMKF1:1,2015-07-05T17:00:00Z,24.6280,-81.1120,48.5,7.2,100.0,7.7,'1111122,1111122,1111122' 
NDBC,ioos:station:NOAA.NDBC:SMKF1:1,2015-07-05T18:00:00Z,24.6280,-81.1120,48.5,6.2,90.0,6.7,'1111122,1111122,1111122' 
NDBC,ioos:station:NOAA.NDBC:SMKF1:1,2015-07-05T19:00:00Z,24.6280,-81.1120,48.5,7.2,90.0,7.7,'1111122,1111122,1111122' 
NDBC,ioos:station:NOAA.NDBC:SMKF1:1,2015-07-05T20:00:00Z,24.6280,-81.1120,48.5,8.2,110.0,8.8,'1111122,1111122,1111122' 
NDBC,ioos:station:NOAA.NDBC:SMKF1:1,2015-07-05T21:00:00Z,24.6280,-81.1120,48.5,8.8,100.0,9.3,'1111122,1111122,1111122' 
NDBC,ioos:station:NOAA.NDBC:SMKF1:1,2015-07-05T22:00:00Z,24.6280,-81.1120,48.5,9.3,110.0,9.8,'1111122,1111122,1111122' 
NDBC,ioos:station:NOAA.NDBC:SMKF1:1,2015-07-05T23:00:00Z,24.6280,-81.1120,48.5,8.2,110.0,8.8,'1111122,1111122,1111122' 
NDBC,ioos:station:NOAA.NDBC:SMKF1:1,2015-07-06T00:00:00Z,24.6280,-81.1120,48.5,8.2,100.0,8.8,'1111122,1111122,1111122' 
NDBC,ioos:station:NOAA.NDBC:SMKF1:1,2015-07-06T01:00:00Z,24.6280,-81.1120,48.5,6.2,110.0,7.2,'1111122,1111122,1111122' 
NDBC,ioos:station:NOAA.NDBC:SMKF1:1,2015-07-06T02:00:00Z,24.6280,-81.1120,48.5,6.2,120.0,6.2,'1111122,1111122,1111122' 
NDBC,ioos:station:NOAA.NDBC:SMKF1:1,2015-07-06T03:00:00Z,24.6280,-81.1120,48.5,5.1,90.0,5.7,'1111122,1111122,1111122' 
NDBC,ioos:station:NOAA.NDBC:SMKF1:1,2015-07-06T04:00:00Z,24.6280,-81.1120,48.5,6.2,100.0,6.7,'1111122,1111122,1111122' 
NDBC,ioos:station:NOAA.NDBC:SMKF1:1,2015-07-06T05:00:00Z,24.6280,-81.1120,48.5,5.1,70.0,6.2,'1111122,1111122,1111122' 
NDBC,ioos:station:NOAA.NDBC:SMKF1:1,2015-07-06T06:00:00Z,24.6280,-81.1120,48.5,4.6,70.0,4.6,'1111122,1111122,1111122' 
NDBC,ioos:station:NOAA.NDBC:SMKF1:1,2015-07-06T07:00:00Z,24.6280,-81.1120,48.5,4.6,90.0,4.6,'1111122,1111122,1111122' 
NDBC,ioos:station:NOAA.NDBC:SMKF1:1,2015-07-06T08:00:00Z,24.6280,-81.1120,48.5,10.3,30.0,11.3,'1111122,1111122,1111122' 
NDBC,ioos:station:NOAA.NDBC:SMKF1:1,2015-07-06T09:00:00Z,24.6280,-81.1120,48.5,8.8,50.0,9.3,'1111122,1111122,1111122' 
NDBC,ioos:station:NOAA.NDBC:SMKF1:1,2015-07-06T10:00:00Z,24.6280,-81.1120,48.5,8.2,80.0,8.8,'1111122,1111122,1111122' 
NDBC,ioos:station:NOAA.NDBC:SMKF1:1,2015-07-06T11:00:00Z,24.6280,-81.1120,48.5,9.3,110.0,9.8,'1111122,1111122,1111122' 
NDBC,ioos:station:NOAA.NDBC:SMKF1:1,2015-07-06T12:00:00Z,24.6280,-81.1120,48.5,10.8,120.0,11.3,'1111122,1111122,1111122' 
NDBC,ioos:station:NOAA.NDBC:SMKF1:1,2015-07-06T13:00:00Z,24.6280,-81.1120,48.5,10.3,130.0,11.3,'1111122,1111122,1111122' 
NDBC,ioos:station:NOAA.NDBC:SMKF1:1,2015-07-06T14:00:00Z,24.6280,-81.1120,48.5,10.3,130.0,11.3,'1111122,1111122,1111122' 
NDBC,ioos:station:NOAA.NDBC:SMKF1:1,2015-07-06T15:00:00Z,24.6280,-81.1120,48.5,4.6,130.0,5.7,'1111122,1111122,1111122' 
NDBC,ioos:station:NOAA.NDBC:SMKF1:1,2015-07-06T16:00:00Z,24.6280,-81.1120,48.5,4.1,100.0,4.6,'1111122,1111122,1111122' 
NDBC,ioos:station:NOAA.NDBC:SMKF1:1,2015-07-06T17:00:00Z,24.6280,-81.1120,48.5,4.6,110.0,5.1,'1111122,1111122,1111122' 
NDBC,ioos:station:NOAA.NDBC:SMKF1:1,2015-07-06T18:00:00Z,24.6280,-81.1120,48.5,5.1,100.0,5.7,'1111122,1111122,1111122' 
NDBC,ioos:station:NOAA.NDBC:SMKF1:1,2015-07-06T19:00:00Z,24.6280,-81.1120,48.5,4.1,120.0,4.6,'1111122,1111122,1111122' 
NDBC,ioos:station:NOAA.NDBC:SMKF1:1,2015-07-06T20:00:00Z,24.6280,-81.1120,48.5,4.1,80.0,5.1,'1111122,1111122,1111122' 
NDBC,ioos:station:NOAA.NDBC:SMKF1:1,2015-07-06T21:00:00Z,24.6280,-81.1120,48.5,7.2,100.0,7.7,'1111122,1111122,1111122' 
NDBC,ioos:station:NOAA.NDBC:SMKF1:1,2015-07-06T22:00:00Z,24.6280,-81.1120,48.5,8.8,60.0,9.8,'1111122,1111122,1111122' 
NDBC,ioos:station:NOAA.NDBC:SMKF1:1,2015-07-07T00:00:00Z,24.6280,-81.1120,48.5,5.7,90.0,6.2,'1111122,1111122,1111122' 
NDBC,ioos:station:NOAA.NDBC:SMKF1:1,2015-07-07T01:00:00Z,24.6280,-81.1120,48.5,3.6,80.0,4.1,'1111122,1111122,1111122' 
NDBC,ioos:station:NOAA.NDBC:SMKF1:1,2015-07-07T02:00:00Z,24.6280,-81.1120,48.5,4.6,70.0,5.1,'1111122,1111122,1111122' 
NDBC,ioos:station:NOAA.NDBC:SMKF1:1,2015-07-07T03:00:00Z,24.6280,-81.1120,48.5,5.1,80.0,6.2,'1111122,1111122,1111122' 
NDBC,ioos:station:NOAA.NDBC:SMKF1:1,2015-07-07T04:00:00Z,24.6280,-81.1120,48.5,6.2,80.0,6.7,'1111122,1111122,1111122' 
NDBC,ioos:station:NOAA.NDBC:SMKF1:1,2015-07-07T05:00:00Z,24.6280,-81.1120,48.5,6.7,90.0,8.2,'1111122,1111122,1111122' 
NDBC,ioos:station:NOAA.NDBC:SMKF1:1,2015-07-07T06:00:00Z,24.6280,-81.1120,48.5,6.2,100.0,6.7,'1111122,1111122,1111122' 
NDBC,ioos:station:NOAA.NDBC:SMKF1:1,2015-07-07T07:00:00Z,24.6280,-81.1120,48.5,5.7,110.0,6.2,'1111122,1111122,1111122' 
NDBC,ioos:station:NOAA.NDBC:SMKF1:1,2015-07-07T08:00:00Z,24.6280,-81.1120,48.5,7.2,120.0,7.7,'1111122,1111122,1111122' 
NDBC,ioos:station:NOAA.NDBC:SMKF1:1,2015-07-07T09:00:00Z,24.6280,-81.1120,48.5,7.2,130.0,7.7,'1111122,1111122,1111122' 
NDBC,ioos:station:NOAA.NDBC:SMKF1:1,2015-07-07T14:00:00Z,24.6280,-81.1120,48.5,5.7,130.0,6.2,'1111122,1111122,1111122' 
NDBC,ioos:station:NOAA.NDBC:SMKF1:1,2015-07-07T15:00:00Z,24.6280,-81.1120,48.5,3.6,120.0,4.1,'1111122,1111122,1111122' 
NDBC,ioos:station:NOAA.NDBC:SMKF1:1,2015-07-07T16:00:00Z,24.6280,-81.1120,48.5,3.1,100.0,3.6,'1111122,1111122,1111122' 
NDBC,ioos:station:NOAA.NDBC:SMKF1:1,2015-07-07T17:00:00Z,24.6280,-81.1120,48.5,3.6,110.0,4.1,'1111122,1111122,1111122' 
NDBC,ioos:station:NOAA.NDBC:SMKF1:1,2015-07-07T18:00:00Z,24.6280,-81.1120,48.5,5.1,110.0,5.7,'1111122,1111122,1111122' 
NDBC,ioos:station:NOAA.NDBC:SMKF1:1,2015-07-07T19:00:00Z,24.6280,-81.1120,48.5,5.7,90.0,6.2,'1111122,1111122,1111122' 
NDBC,ioos:station:NOAA.NDBC:SMKF1:1,2015-07-07T20:00:00Z,24.6280,-81.1120,48.5,7.7,100.0,8.2,'1111122,1111122,1111122' 
NDBC,ioos:station:NOAA.NDBC:SMKF1:1,2015-07-07T21:00:00Z,24.6280,-81.1120,48.5,6.7,100.0,7.7,'1111122,1111122,1111122' 
NDBC,ioos:station:NOAA.NDBC:SMKF1:1,2015-07-07T22:00:00Z,24.6280,-81.1120,48.5,8.8,120.0,9.3,'1111122,1111122,1111122' 
NDBC,ioos:station:NOAA.NDBC:SMKF1:1,2015-07-07T23:00:00Z,24.6280,-81.1120,48.5,7.7,110.0,8.2,'1111122,1111122,1111122' 
NDBC,ioos:station:NOAA.NDBC:SMKF1:1,2015-07-08T00:00:00Z,24.6280,-81.1120,48.5,7.7,110.0,8.2,'1111122,1111122,1111122' 
NDBC,ioos:station:NOAA.NDBC:SMKF1:1,2015-07-08T01:00:00Z,24.6280,-81.1120,48.5,5.7,90.0,6.2,'1111122,1111122,1111122' 
NDBC,ioos:station:NOAA.NDBC:SMKF1:1,2015-07-08T02:00:00Z,24.6280,-81.1120,48.5,6.2,100.0,6.7,'1111122,1111122,1111122' 
NDBC,ioos:station:NOAA.NDBC:SMKF1:1,2015-07-08T03:00:00Z,24.6280,-81.1120,48.5,7.2,100.0,8.2,'1111122,1111122,1111122' 
NDBC,ioos:station:NOAA.NDBC:SMKF1:1,2015-07-08T04:00:00Z,24.6280,-81.1120,48.5,6.7,110.0,7.2,'1111122,1111122,1111122' 
NDBC,ioos:station:NOAA.NDBC:SMKF1:1,2015-07-08T05:00:00Z,24.6280,-81.1120,48.5,7.2,110.0,7.7,'1111122,1111122,1111122' 
NDBC,ioos:station:NOAA.NDBC:SMKF1:1,2015-07-08T06:00:00Z,24.6280,-81.1120,48.5,6.2,100.0,6.7,'1111122,1111122,1111122' 
NDBC,ioos:station:NOAA.NDBC:SMKF1:1,2015-07-08T07:00:00Z,24.6280,-81.1120,48.5,5.7,90.0,6.7,'1111122,1111122,1111122' 
NDBC,ioos:station:NOAA.NDBC:SMKF1:1,2015-07-08T08:00:00Z,24.6280,-81.1120,48.5,5.1,90.0,5.1,'1111122,1111122,1111122' 
NDBC,ioos:station:NOAA.NDBC:SMKF1:1,2015-07-08T09:00:00Z,24.6280,-81.1120,48.5,5.1,90.0,5.7,'1111122,1111122,1111122' 
NDBC,ioos:station:NOAA.NDBC:SMKF1:1,2015-07-08T10:00:00Z,24.6280,-81.1120,48.5,5.1,130.0,6.2,'1111122,1111122,1111122' 
NDBC,ioos:station:NOAA.NDBC:SMKF1:1,2015-07-08T11:00:00Z,24.6280,-81.1120,48.5,5.7,110.0,7.2,'1111122,1111122,1111122' 
NDBC,ioos:station:NOAA.NDBC:SMKF1:1,2015-07-08T12:00:00Z,24.6280,-81.1120,48.5,8.2,110.0,8.8,'1111122,1111122,1111122' 
NDBC,ioos:station:NOAA.NDBC:SMKF1:1,2015-07-08T13:00:00Z,24.6280,-81.1120,48.5,7.2,110.0,7.7,'1111122,1111122,1111122' 
NDBC,ioos:station:NOAA.NDBC:SMKF1:1,2015-07-08T14:00:00Z,24.6280,-81.1120,48.5,6.7,110.0,7.2,'1111122,1111122,1111122' 
NDBC,ioos:station:NOAA.NDBC:SMKF1:1,2015-07-08T15:00:00Z,24.6280,-81.1120,48.5,7.2,100.0,7.2,'1111122,1111122,1111122' 
NDBC,ioos:station:NOAA.NDBC:SMKF1:1,2015-07-08T16:00:00Z,24.6280,-81.1120,48.5,7.2,100.0,7.7,'1111122,1111122,1111122' 
NDBC,ioos:station:NOAA.NDBC:SMKF1:1,2015-07-08T17:00:00Z,24.6280,-81.1120,48.5,8.2,110.0,8.8,'1111122,1111122,1111122' 
NDBC,ioos:station:NOAA.NDBC:SMKF1:1,2015-07-08T18:00:00Z,24.6280,-81.1120,48.5,7.2,100.0,8.2,'1111122,1111122,1111122' 
NDBC,ioos:station:NOAA.NDBC:SMKF1:1,2015-07-08T19:00:00Z,24.6280,-81.1120,48.5,7.7,100.0,8.8,'1111122,1111122,1111122' 
NDBC,ioos:station:NOAA.NDBC:SMKF1:1,2015-07-08T20:00:00Z,24.6280,-81.1120,48.5,8.8,90.0,9.3,'1111122,1111122,1111122' 
NDBC,ioos:station:NOAA.NDBC:SMKF1:1,2015-07-08T21:00:00Z,24.6280,-81.1120,48.5,9.3,90.0,9.8,'1111122,1111122,1111122' 
NDBC,ioos:station:NOAA.NDBC:SMKF1:1,2015-07-08T22:00:00Z,24.6280,-81.1120,48.5,8.2,100.0,9.3,'1111122,1111122,1111122' 
NDBC,ioos:station:NOAA.NDBC:SMKF1:1,2015-07-09T00:00:00Z,24.6280,-81.1120,48.5,8.8,100.0,9.3,'1111122,1111122,1111122' 
NDBC,ioos:station:NOAA.NDBC:SMKF1:1,2015-07-09T01:00:00Z,24.6280,-81.1120,48.5,8.8,90.0,9.3,'1111122,1111122,1111122' 
NDBC,ioos:station:NOAA.NDBC:SMKF1:1,2015-07-09T02:00:00Z,24.6280,-81.1120,48.5,9.8,100.0,10.3,'1111122,1111122,1111122' 
NDBC,ioos:station:NOAA.NDBC:SMKF1:1,2015-07-09T03:00:00Z,24.6280,-81.1120,48.5,8.8,90.0,9.8,'1111122,1111122,1111122' 
NDBC,ioos:station:NOAA.NDBC:SMKF1:1,2015-07-09T04:00:00Z,24.6280,-81.1120,48.5,7.2,100.0,7.7,'1111122,1111122,1111122' 
NDBC,ioos:station:NOAA.NDBC:SMKF1:1,2015-07-09T05:00:00Z,24.6280,-81.1120,48.5,7.2,90.0,8.2,'1111122,1111122,1111122' 
NDBC,ioos:station:NOAA.NDBC:SMKF1:1,2015-07-09T06:00:00Z,24.6280,-81.1120,48.5,7.7,90.0,8.2,'1111122,1111122,1111122' 
NDBC,ioos:station:NOAA.NDBC:SMKF1:1,2015-07-09T07:00:00Z,24.6280,-81.1120,48.5,7.2,90.0,7.7,'1111122,1111122,1111122' 
NDBC,ioos:station:NOAA.NDBC:SMKF1:1,2015-07-09T08:00:00Z,24.6280,-81.1120,48.5,8.8,90.0,9.3,'1111122,1111122,1111122' 
NDBC,ioos:station:NOAA.NDBC:SMKF1:1,2015-07-09T09:00:00Z,24.6280,-81.1120,48.5,7.7,100.0,8.2,'1111122,1111122,1111122' 
NDBC,ioos:station:NOAA.NDBC:SMKF1:1,2015-07-09T10:00:00Z,24.6280,-81.1120,48.5,6.2,100.0,6.7,'1111122,1111122,1111122' 
NDBC,ioos:station:NOAA.NDBC:SMKF1:1,2015-07-09T11:00:00Z,24.6280,-81.1120,48.5,7.2,100.0,7.7,'1111122,1111122,1111122' 
NDBC,ioos:station:NOAA.NDBC:SMKF1:1,2015-07-09T12:00:00Z,24.6280,-81.1120,48.5,7.2,90.0,7.7,'1111122,1111122,1111122' 
NDBC,ioos:station:NOAA.NDBC:SMKF1:1,2015-07-09T13:00:00Z,24.6280,-81.1120,48.5,8.2,90.0,8.8,'1111122,1111122,1111122' 
NDBC,ioos:station:NOAA.NDBC:SMKF1:1,2015-07-09T14:00:00Z,24.6280,-81.1120,48.5,8.8,90.0,9.3,'1111122,1111122,1111122' 
NDBC,ioos:station:NOAA.NDBC:SMKF1:1,2015-07-09T15:00:00Z,24.6280,-81.1120,48.5,8.8,100.0,9.3,'1111122,1111122,1111122' 
NDBC,ioos:station:NOAA.NDBC:SMKF1:1,2015-07-09T16:00:00Z,24.6280,-81.1120,48.5,8.2,100.0,9.3,'1111122,1111122,1111122' 
NDBC,ioos:station:NOAA.NDBC:SMKF1:1,2015-07-09T17:00:00Z,24.6280,-81.1120,48.5,9.3,100.0,9.8,'1111122,1111122,1111122' 
NDBC,ioos:station:NOAA.NDBC:SMKF1:1,2015-07-09T18:00:00Z,24.6280,-81.1120,48.5,9.3,100.0,9.8,'1111122,1111122,1111122' 
NDBC,ioos:station:NOAA.NDBC:SMKF1:1,2015-07-09T19:00:00Z,24.6280,-81.1120,48.5,8.8,90.0,9.8,'1111122,1111122,1111122' 
NDBC,ioos:station:NOAA.NDBC:SMKF1:1,2015-07-09T22:00:00Z,24.6280,-81.1120,48.5,8.8,110.0,9.3,'1111122,1111122,1111122' 
NDBC,ioos:station:NOAA.NDBC:SMKF1:1,2015-07-10T01:00:00Z,24.6280,-81.1120,48.5,6.7,80.0,7.2,'1111122,1111122,1111122' 
NDBC,ioos:station:NOAA.NDBC:SMKF1:1,2015-07-10T03:00:00Z,24.6280,-81.1120,48.5,8.2,80.0,8.8,'1111122,1111122,1111122' 
NDBC,ioos:station:NOAA.NDBC:SMKF1:1,2015-07-10T04:00:00Z,24.6280,-81.1120,48.5,6.7,70.0,7.7,'1111122,1111122,1111122' 
NDBC,ioos:station:NOAA.NDBC:SMKF1:1,2015-07-10T05:00:00Z,24.6280,-81.1120,48.5,6.7,70.0,6.7,'1111122,1111122,1111122' 
NDBC,ioos:station:NOAA.NDBC:SMKF1:1,2015-07-10T06:00:00Z,24.6280,-81.1120,48.5,7.2,70.0,7.7,'1111122,1111122,1111122' 
NDBC,ioos:station:NOAA.NDBC:SMKF1:1,2015-07-10T07:00:00Z,24.6280,-81.1120,48.5,6.2,90.0,6.7,'1111122,1111122,1111122' 
NDBC,ioos:station:NOAA.NDBC:SMKF1:1,2015-07-10T08:00:00Z,24.6280,-81.1120,48.5,5.1,90.0,5.7,'1111122,1111122,1111122' 
NDBC,ioos:station:NOAA.NDBC:SMKF1:1,2015-07-10T09:00:00Z,24.6280,-81.1120,48.5,8.2,100.0,8.8,'1111122,1111122,1111122' 
NDBC,ioos:station:NOAA.NDBC:SMKF1:1,2015-07-10T10:00:00Z,24.6280,-81.1120,48.5,6.2,120.0,6.7,'1111122,1111122,1111122' 
NDBC,ioos:station:NOAA.NDBC:SMKF1:1,2015-07-10T11:00:00Z,24.6280,-81.1120,48.5,7.2,90.0,7.7,'1111122,1111122,1111122' 